Location: Newark
(34.6283°N, 36.0776°E)
Time: 08:56:09
(UTC+00:00)

A-11 Canister half - Pass Details

Date: 17 September 2019
Orbit: 1527 x 1682 km, 47.3° (Epoch: 14 October)

Event Time Altitude Azimuth Distance (km) Brightness Sun altitude
Rises 11:49:54 0° 284° (WNW) 4,899 12.0 44.2°
Reaches altitude 10° 11:56:44 10° 252° (WSW) 3,929 12.2 43.0°
Maximum altitude 11:58:57 11° 239° (WSW) 3,860 12.3 42.7°
Drops below altitude 10° 12:01:11 10° 226° (SW) 3,934 12.3 42.3°
Sets 12:08:06 0° 194° (SSW) 4,915 12.2 41.1°
